TimeMDT,TemperatureF,Dew PointF,Humidity,Sea Level PressureIn,VisibilityMPH,Wind Direction,Wind SpeedMPH,Gust SpeedMPH,PrecipitationIn,Events,Conditions,WindDirDegrees,DateUTC
12:53 AM,42.1,35.1,76,30.03,10.0,ESE,9.2,-,N/A,,Clear,120,2013-05-13 06:53:00
1:53 AM,43.0,35.1,74,30.00,10.0,SSE,10.4,-,N/A,,Clear,160,2013-05-13 07:53:00
2:53 AM,41.0,34.0,76,30.01,10.0,SSE,8.1,-,N/A,,Clear,150,2013-05-13 08:53:00
3:53 AM,42.1,34.0,73,30.02,10.0,SE,3.5,-,N/A,,Clear,140,2013-05-13 09:53:00
4:53 AM,42.1,34.0,73,30.01,-9999.0,SE,9.2,-,N/A,,Clear,130,2013-05-13 10:53:00
5:53 AM,42.1,34.0,73,30.04,10.0,SE,10.4,-,N/A,,Clear,130,2013-05-13 11:53:00
6:53 AM,46.0,36.0,68,30.03,10.0,ESE,5.8,-,N/A,,Clear,120,2013-05-13 12:53:00
7:53 AM,53.1,37.9,57,30.05,10.0,South,4.6,-,N/A,,Clear,190,2013-05-13 13:53:00
8:53 AM,61.0,37.0,41,30.05,10.0,Calm,Calm,-,N/A,,Clear,0,2013-05-13 14:53:00
9:53 AM,66.9,35.1,31,30.03,10.0,North,4.6,-,N/A,,Clear,360,2013-05-13 15:53:00
10:53 AM,70.0,35.1,28,30.03,10.0,NW,6.9,-,N/A,,Clear,320,2013-05-13 16:53:00
11:53 AM,72.0,32.0,23,30.03,10.0,West,12.7,18.4,N/A,,Clear,280,2013-05-13 17:53:00
12:53 PM,73.9,30.9,21,30.01,10.0,WNW,12.7,16.1,N/A,,Partly Cloudy,300,2013-05-13 18:53:00
2:53 PM,75.0,30.9,20,29.99,10.0,NW,8.1,-,N/A,,Mostly Cloudy,310,2013-05-13 20:53:00
3:53 PM,73.9,30.0,20,29.97,10.0,West,6.9,-,N/A,,Clear,260,2013-05-13 21:53:00
4:53 PM,75.9,30.0,19,29.94,10.0,WSW,12.7,-,N/A,,Partly Cloudy,250,2013-05-13 22:53:00
6:53 PM,73.0,28.9,20,29.90,10.0,WNW,15.0,-,N/A,,Clear,290,2013-05-14 00:53:00
7:53 PM,64.9,37.9,37,29.91,10.0,WSW,4.6,-,N/A,,Scattered Clouds,250,2013-05-14 01:53:00
8:53 PM,61.0,37.9,42,29.89,10.0,WSW,8.1,-,N/A,,Mostly Cloudy,250,2013-05-14 02:53:00
9:53 PM,55.9,37.9,51,29.89,10.0,SSW,6.9,-,N/A,,Scattered Clouds,200,2013-05-14 03:53:00
10:53 PM,51.1,37.9,61,29.89,10.0,SSW,6.9,-,N/A,,Clear,200,2013-05-14 04:53:00
11:53 PM,50.0,37.0,61,29.87,10.0,SW,6.9,-,N/A,,Clear,230,2013-05-14 05:53:00